Change the Weather History Date:

Friday, June 13, 2014

  Actual Average Record
Temperature  
Mean Temperature 49 °F 59 °F  
Max Temperature 55 °F 71 °F 90 °F (1956)
Min Temperature 43 °F 48 °F 36 °F (1940)
Degree Days  
Heating Degree Days 16 6  
Month to date heating degree days 70 100  
Since 1 June heating degree days 70 100  
Since 1 July heating degree days 9687 8583  
Cooling Degree Days 0 1  
Month to date cooling degree days 2 6  
Year to date cooling degree days 4 11  
Since 1 June cooling degree days 2 6  
Moisture  
Dew Point 43 °F    
Average Humidity 82    
Maximum Humidity 93    
Minimum Humidity 71    
Precipitation  
Precipitation 0.01 in 0.09 in 1.36 in (1994)
Month to date precipitation 0.71 1.18  
Year to date precipitation 12.75 11.62  
Sea Level Pressure  
Sea Level Pressure 29.80 in    
Wind  
Wind Speed 10 mph (WNW)    
Max Wind Speed 22 mph    
Max Gust Speed 28 mph    
Visibility 8 miles    
Events Rain    
T = Trace of Precipitation, MM = Missing Value Source: NWS Daily Summary

Daily Weather History Graph

Daily Weather History Graph

Search for Another Location

Airport or City:

Trip Planner

Search our weather history database for the weather conditions in past years. The results will help you decide how hot, cold, wet, or windy it might be!

Date:

Astronomy

Jun. 13, 2014 Rise Set
Actual Time 5:44 AM EDT 9:31 PM EDT
Civil Twilight 5:05 AM EDT 10:10 PM EDT
Nautical Twilight 4:12 AM EDT 11:03 PM EDT
Astronomical Twilight 2:57 AM EDT 12:18 AM EDT
Moon 9:55 PM EDT (6/13) 6:27 AM EDT (6/13)
Length of Visible Light 17h 05m
Length of Day
15h 46m
Full, 100% of the Moon is Illuminated
Jun 13
Full
Jun 19
Last Quarter
Jun 27
New
Jul 5
First Quarter
Jul 12
Full

Hourly Weather History & Observations

Time (EDT) Temp. Windchill Dew Point Humidity Pressure Visibility Wind Dir Wind Speed Gust Speed Precip Events Conditions
12:26 AM 55.0 °F - 53.1 °F 93% 29.67 in 8.0 mi SW 4.6 mph - N/A   Overcast
12:52 AM 55.4 °F - 51.8 °F 88% 29.67 in 8.0 mi Calm Calm - N/A   Mostly Cloudy
12:55 AM 55.0 °F - 52.0 °F 89% 29.66 in 8.0 mi Calm Calm - N/A   Mostly Cloudy
1:55 AM 54.0 °F - 51.1 °F 90% 29.66 in 10.0 mi WSW 4.6 mph - N/A   Mostly Cloudy
2:55 AM 51.1 °F - 48.0 °F 89% 29.67 in 10.0 mi SSW 4.6 mph - N/A   Clear
3:55 AM 51.1 °F - 48.9 °F 92% 29.67 in 10.0 mi WSW 3.5 mph - N/A   Overcast
4:40 AM 51.1 °F - 48.0 °F 89% 29.67 in 10.0 mi West 4.6 mph - N/A   Overcast
4:55 AM 51.1 °F - 48.0 °F 89% 29.67 in 10.0 mi West 3.5 mph - N/A   Overcast
5:06 AM 50.0 °F - 46.9 °F 89% 29.68 in 10.0 mi NW 11.5 mph - N/A   Overcast
5:44 AM 46.9 °F - 44.1 °F 90% 29.70 in 10.0 mi NW 8.1 mph - N/A   Overcast
5:55 AM 46.9 °F - 43.0 °F 86% 29.70 in 10.0 mi NW 9.2 mph - N/A   Overcast
6:07 AM 46.9 °F - 43.0 °F 86% 29.70 in 10.0 mi NW 8.1 mph - N/A   Overcast
6:33 AM 46.9 °F - 43.0 °F 86% 29.71 in 10.0 mi NW 5.8 mph - N/A   Overcast
6:55 AM 46.9 °F - 43.0 °F 86% 29.72 in 10.0 mi NW 9.2 mph - N/A   Overcast
7:15 AM 46.9 °F - 44.1 °F 90% 29.72 in 1.8 mi WNW 8.1 mph - 0.00 in Rain Light Rain
7:27 AM 46.9 °F - 44.1 °F 90% 29.73 in 3.0 mi WNW 4.6 mph - 0.01 in Rain Light Rain
7:34 AM 46.9 °F - 44.1 °F 90% 29.73 in 7.0 mi WNW 4.6 mph - 0.01 in   Overcast
7:43 AM 46.9 °F - 45.0 °F 93% 29.73 in 9.0 mi WNW 6.9 mph - 0.01 in   Overcast
7:52 AM 46.4 °F 43.5 °F 44.6 °F 93% 29.73 in 9.0 mi West 5.8 mph - 0.01 in   Overcast
7:55 AM 48.0 °F - 44.1 °F 86% 29.73 in 10.0 mi WNW 8.1 mph - 0.01 in   Overcast
8:43 AM 46.9 °F - 43.0 °F 86% 29.74 in 6.0 mi West 10.4 mph - N/A   Overcast
8:55 AM 46.9 °F - 43.0 °F 86% 29.74 in 4.0 mi West 9.2 mph - 0.00 in   Overcast
9:35 AM 48.0 °F - 43.0 °F 83% 29.75 in 8.0 mi West 11.5 mph 19.6 mph N/A   Overcast
9:55 AM 48.0 °F - 43.0 °F 83% 29.75 in 10.0 mi West 12.7 mph 18.4 mph N/A   Overcast
10:02 AM 48.9 °F - 44.1 °F 83% 29.75 in 10.0 mi West 6.9 mph 18.4 mph N/A   Overcast
10:12 AM 48.0 °F - 44.1 °F 86% 29.75 in 6.0 mi West 9.2 mph - N/A   Overcast
11:04 AM 48.0 °F - 43.0 °F 83% 29.77 in 10.0 mi West 10.4 mph 19.6 mph N/A   Overcast
11:17 AM 46.9 °F - 44.1 °F 90% 29.78 in 5.0 mi WNW 10.4 mph 19.6 mph N/A   Overcast
11:30 AM 46.0 °F 39.9 °F 43.0 °F 89% 29.78 in 1.8 mi WNW 13.8 mph - 0.00 in Rain Light Rain
11:45 AM 45.0 °F 39.3 °F 43.0 °F 93% 29.79 in 2.0 mi West 11.5 mph 21.9 mph 0.00 in Rain Light Rain
11:55 AM 45.0 °F 38.5 °F 43.0 °F 93% 29.80 in 2.5 mi West 13.8 mph 21.9 mph 0.00 in Rain Light Rain
12:06 PM 45.0 °F 39.3 °F 43.0 °F 93% 29.80 in 5.0 mi West 11.5 mph 24.2 mph 0.00 in   Overcast
1:53 PM 44.6 °F 38.1 °F 42.8 °F 93% 29.82 in 2.5 mi West 13.8 mph 23.0 mph N/A   Overcast
1:55 PM 45.0 °F 38.5 °F 43.0 °F 93% 29.83 in 2.5 mi West 13.8 mph 23.0 mph N/A   Overcast
2:13 PM 45.0 °F 37.9 °F 42.1 °F 90% 29.83 in 5.0 mi WNW 16.1 mph 23.0 mph N/A   Overcast
2:35 PM 46.9 °F - 42.1 °F 83% 29.84 in 7.0 mi West 15.0 mph 26.5 mph N/A   Overcast
2:55 PM 46.9 °F - 42.1 °F 83% 29.85 in 10.0 mi West 15.0 mph 21.9 mph N/A   Overcast
3:55 PM 46.0 °F 39.0 °F 41.0 °F 83% 29.88 in 7.0 mi WNW 17.3 mph 25.3 mph 0.00 in   Overcast
4:23 PM 48.0 °F - 41.0 °F 77% 29.87 in 10.0 mi WNW 13.8 mph - N/A   Overcast
6:45 PM 46.9 °F - 39.9 °F 77% 29.91 in 10.0 mi NW 12.7 mph 21.9 mph N/A   Overcast
7:55 PM 46.9 °F - 39.9 °F 77% 29.94 in 10.0 mi NW 11.5 mph - N/A   Overcast
8:29 PM 46.0 °F 40.6 °F 39.9 °F 79% 29.94 in 10.0 mi NW 11.5 mph 18.4 mph N/A   Overcast
8:55 PM 46.0 °F 41.0 °F 39.9 °F 79% 29.95 in 10.0 mi NW 10.4 mph - N/A   Mostly Cloudy
9:13 PM 45.0 °F 38.9 °F 39.0 °F 80% 29.95 in 10.0 mi WNW 12.7 mph - N/A   Mostly Cloudy
9:39 PM 44.1 °F 38.6 °F 39.0 °F 82% 29.95 in 10.0 mi NW 10.4 mph 18.4 mph N/A   Overcast
9:55 PM 44.1 °F 38.6 °F 39.0 °F 82% 29.97 in 10.0 mi WNW 10.4 mph - N/A   Overcast
10:32 PM 43.0 °F 38.2 °F 39.0 °F 86% 29.98 in 10.0 mi WNW 8.1 mph - N/A   Overcast
10:39 PM 43.0 °F 37.7 °F 39.0 °F 86% 29.98 in 10.0 mi WNW 9.2 mph - N/A   Overcast
10:55 PM 43.0 °F 38.8 °F 39.0 °F 86% 29.99 in 10.0 mi WNW 6.9 mph - N/A   Overcast
11:14 PM 43.0 °F 39.5 °F 39.0 °F 86% 29.98 in 10.0 mi WNW 5.8 mph - N/A   Overcast
11:55 PM 44.1 °F 40.8 °F 39.0 °F 82% 30.00 in 10.0 mi WNW 5.8 mph - N/A   Overcast